Terminal Aerodrome Forecast
Issued by NWS

Home | Current Version | Previous Version | Text Only | Print | Product List | Glossary On
Versions: 1 2 3 4 5 6 7 8 9 10 11 12 13 14 15 16 17 18 19 20 21 22 23 24
000
FTUS44 KOUN 011742
TAFGAG
TAF
KGAG 011742Z 0118/0218 18006KT P6SM FEW250
     FM020900 32013KT P6SM SCT250
     FM021400 34016G25KT P6SM BKN120=

USA.gov is the U.S. government's official web portal to all federal, state and local government web resources and services.